Flag for Greece Weather past 2 weeks in Heraklion, Crete, Greece

Now
61 °F

Scattered clouds.


Feels Like: 61 °F
Forecast: 54 / 66 °F
Wind: 5 mph from North

Location: Heraklion Airport


UV Index: 5 (Moderate)

Visibility: N/A


Pressure: 29.83 "Hg

Humidity: 63%

Dew point: 48 °F

Location of HeraklionLocation

Historic Weather in Heraklion

°F

Heraklion temperature yesterday

Maximum temperature yesterday: 72 °F (at 1:50 PM)
Minimum temperature yesterday: 55 °F (at 11:50 PM)
Average temperature yesterday: 62 °F

Past Weeks' High & Low Weather Summary

 TemperatureHumidityPressure
High75 °F (Apr 4, 1:20 PM)100% (Apr 8, 6:50 AM)30.09 "Hg (Apr 8, 6:50 AM)
Low48 °F (Apr 4, 6:50 AM)32% (Apr 5, 12:50 AM)29.71 "Hg (Apr 17, 1:50 PM)
Average61 °F71%29.92 "Hg
* Reported Apr 3 5:20 PM — Apr 18 5:50 PM, Heraklion, Weather by CustomWeather, © 2014

Note: Actual official high and low records may vary slightly from our data, if they occured in-between our weather recording intervals... More about our weather records

Advertising

Historic Weather Conditions — Data for Previous 24 hours

 ConditionsComfort  
Time TempWeatherWind HumidityBarometerVisibility
5:50 PM
Apr 18
61 °FScattered clouds.12 mph63%29.83 "HgN/A
5:20 PM61 °FPartly sunny.10 mph59%29.83 "HgN/A
4:50 PM61 °FPartly sunny.12 mph59%29.83 "HgN/A
4:20 PM61 °FPartly sunny.14 mph63%29.83 "HgN/A
3:50 PM61 °FPartly sunny.15 mph63%29.83 "HgN/A
3:20 PM63 °FPartly sunny.13 mph64%29.80 "HgN/A
2:50 PM63 °FPartly sunny.18 mph64%29.80 "HgN/A
2:20 PM63 °FPartly sunny.16 mph56%29.80 "HgN/A
1:50 PM63 °FPartly sunny.16 mph56%29.80 "HgN/A
1:20 PM64 °FScattered clouds.10 mph52%29.80 "HgN/A
12:50 PM64 °FScattered clouds.9 mph52%29.80 "HgN/A
12:20 PM64 °FScattered clouds.12 mph52%29.80 "HgN/A
11:50 AM64 °FScattered clouds.7 mph52%29.80 "HgN/A
11:20 AM63 °FScattered clouds.8 mph52%29.77 "HgN/A
10:50 AM63 °FScattered clouds.7 mph52%29.77 "HgN/A
10:20 AM63 °FScattered clouds.7 mph49%29.74 "HgN/A
9:50 AM63 °FPassing clouds.3 mph49%29.74 "HgN/A
9:20 AM57 °FPassing clouds.3 mph67%29.74 "HgN/A
8:50 AM57 °FPassing clouds.3 mph67%29.74 "HgN/A
8:20 AM54 °FPassing clouds.N/A72%29.74 "HgN/A
7:50 AM54 °FPassing clouds.6 mph72%29.74 "HgN/A
7:20 AM50 °FPassing clouds.9 mph71%29.74 "HgN/A
6:50 AM50 °FPassing clouds.7 mph71%29.74 "HgN/A
6:20 AM54 °FPassing clouds.7 mph63%29.74 "HgN/A
5:50 AM50 °FPassing clouds.9 mph71%29.74 "HgN/A
4:50 AM54 °FPassing clouds.5 mph67%29.74 "HgN/A
3:50 AM54 °FPassing clouds.3 mph63%29.74 "HgN/A
3:20 AM54 °FPassing clouds.5 mph63%29.74 "HgN/A
2:50 AM54 °FPassing clouds.7 mph63%29.74 "HgN/A
12:50 AM55 °FPassing clouds.3 mph77%29.74 "HgN/A
12:20 AM55 °FPassing clouds.2 mph77%29.74 "HgN/A
11:50 PM
Apr 17
55 °FPassing clouds.3 mph77%29.74 "HgN/A
11:20 PM57 °FPassing clouds.5 mph77%29.74 "HgN/A
10:50 PM57 °FPassing clouds.3 mph77%29.74 "HgN/A
10:20 PM57 °FPassing clouds.2 mph82%29.71 "HgN/A
9:50 PM57 °FPassing clouds.3 mph82%29.71 "HgN/A
9:20 PM57 °FPassing clouds.5 mph77%29.71 "HgN/A
8:50 PM57 °FPartly sunny.10 mph77%29.71 "HgN/A
7:50 PM57 °FPartly sunny.10 mph77%29.71 "HgN/A
7:20 PM57 °FPartly sunny.10 mph77%29.71 "HgN/A
6:50 PM57 °FPartly sunny.13 mph77%29.71 "HgN/A
6:20 PM57 °FBroken clouds.13 mph82%29.71 "HgN/A
Weather by CustomWeather, © 2014

See weather overview